Wetbulb
71.92 71.74 73.67 69.58 60.00 60.06 56.45 57.88 62.42 62.00 62.07 64.91 67.58 65.14 63.40 65.02 62.07 56.70 70.66 71.82 73.45 74.22 76.09 76.96 77.97 77.46 77.04 77.16 76.92 77.09 76.84 76.98 77.32 77.30 76.90 76.81 76.86 77.13 77.24 77.02 76.91 76.75 76.57 76.67 77.05 76.81 76.79 76.79 77.11
70.73 74.19 71.66 65.00 55.85 51.66 54.34 61.91 58.58 62.97 65.35 66.12 67.07 65.95 64.34 62.92 68.74 68.56 69.50 72.52 73.63 74.54 75.20 76.20 77.78 77.93 77.41 77.21 77.37 77.48 76.78 76.64 76.61 76.69 76.61 76.67 76.59 76.35 76.79 77.05 76.73 76.65 76.35 76.13 76.32 76.35 76.55 76.52 77.04
72.17 73.88 66.89 61.41 57.15 53.19 55.24 62.42 62.22 64.94 67.33 66.33 65.21 67.55 65.68 64.81 69.06 69.54 72.00 72.96 73.72 73.58 74.79 75.81 78.29 78.17 77.28 77.29 77.29 78.10 77.50 77.04 76.77 76.75 76.45 76.51 76.43 75.99 76.05 76.43 76.53 76.65 76.59 76.33 76.08 76.14 76.03 76.33 76.27
70.95 69.60 68.51 59.67 56.07 57.97 60.50 62.52 65.67 64.80 67.12 67.98 66.99 63.25 67.26 70.98 69.89 71.65 73.37 73.86 73.10 73.67 74.82 77.54 78.63 77.49 77.55 77.71 77.37 77.21 76.99 76.94 76.69 76.67 76.64 76.35 76.13 76.02 75.80 76.35 76.52 76.37 76.08 75.86 75.78 75.92 76.11 76.16 75.91
72.32 66.60 59.31 57.15 59.10 61.52 63.46 65.71 66.29 64.41 64.11 63.91 66.20 63.20 64.51 70.13 72.57 72.79 73.27 73.63 72.90 73.54 74.56 75.89 78.55 78.73 78.43 77.50 77.97 77.51 76.97 76.88 76.78 76.84 76.48 76.18 76.24 75.89 75.94 76.41 76.84 76.40 76.13 75.80 75.50 75.67 75.56 75.83 75.77
65.63 64.63 54.90 53.69 58.70 63.15 65.09 66.96 65.88 65.05 65.88 66.23 65.47 64.54 64.79 71.15 71.47 72.60 73.60 72.93 74.03 73.80 74.57 75.61 77.97 78.79 78.42 77.40 77.48 77.59 77.24 77.32 76.88 76.59 76.54 76.40 76.08 76.22 76.24 76.54 76.49 75.97 75.86 75.61 75.11 75.25 75.55 75.69 75.23
63.57 59.78 56.31 57.17 58.84 61.30 64.53 68.26 65.19 63.72 65.16 65.22 66.96 62.92 65.66 69.07 71.88 72.77 72.80 73.19 73.91 74.76 74.74 74.39 74.58 75.58 77.20 77.91 77.11 77.19 77.17 76.78 76.62 76.48 76.32 76.36 76.48 76.15 76.46 76.61 76.25 75.89 75.69 75.50 75.56 75.50 75.83 75.85 75.74
66.07 60.73 58.12 59.38 58.62 59.87 65.04 67.57 65.42 65.95 64.79 68.41 68.58 62.56 62.70 68.52 71.41 70.37 70.55 71.12 72.60 73.97 74.37 73.98 73.78 74.01 73.96 74.84 77.32 76.80 76.32 76.35 76.11 75.83 75.83 76.23 76.42 76.48 76.49 77.10 76.32 75.77 75.29 75.60 75.58 75.50 75.56 75.47 75.49
67.33 57.31 54.03 57.83 58.96 60.70 66.07 64.67 67.93 69.24 65.91 67.34 66.51 67.63 69.33 70.36 69.90 68.47 68.29 68.71 70.58 72.92 73.33 73.57 72.07 70.82 70.75 71.16 72.92 74.35 75.57 75.52 75.10 75.17 75.77 75.71 73.23 73.99 74.46 75.26 75.77 75.46 75.35 75.69 75.66 75.78 75.78 75.86 75.83
60.45 54.27 58.65 62.69 62.84 62.17 65.81 65.47 65.71 64.70 64.51 64.78 65.35 68.90 70.38 69.77 68.63 67.45 67.07 67.16 69.19 69.85 71.45 72.63 71.14 69.62 70.07 72.10 71.24 71.36 71.93 71.04 70.23 70.35 70.52 71.84 72.28 72.46 74.78 74.80 75.18 75.03 75.14 75.36 74.88 76.14 76.22 75.68 72.83
60.91 55.45 61.82 62.85 64.77 66.14 65.42 66.27 68.34 63.65 61.82 63.76 64.26 66.54 68.85 68.63 68.31 67.45 67.67 67.95 68.36 69.82 71.44 71.74 71.21 70.33 69.71 70.78 71.44 70.58 71.26 70.54 70.58 70.36 70.81 71.58 71.78 71.87 71.77 70.91 70.03 68.83 72.20 72.18 73.92 73.39 72.83 72.96 70.86
56.71 60.04 62.69 64.14 65.21 66.53 64.85 67.76 66.01 65.60 64.52 66.92 66.41 68.09 68.25 67.77 68.34 68.33 67.99 68.11 68.08 68.99 70.07 71.12 71.70 70.94 70.00 70.63 71.35 71.06 69.09 70.30 69.77 69.97 70.98 70.16 70.86 71.06 71.39 70.83 69.81 67.89 68.96 69.84 71.96 71.55 70.58 70.08 66.80
57.64 59.65 63.08 64.37 63.84 64.93 65.09 65.24 65.47 66.50 68.48 67.96 67.62 68.25 67.77 68.10 68.62 69.31 69.71 69.68 69.04 68.74 70.07 70.20 71.15 71.73 70.84 71.11 71.33 70.73 68.83 68.92 70.18 70.45 70.83 71.05 71.04 69.99 69.93 70.11 68.80 67.36 68.80 70.09 71.58 71.64 69.28 69.00 69.14
58.52 60.66 62.46 62.81 62.46 63.31 63.53 64.64 64.77 67.22 67.90 66.68 66.14 65.44 67.83 67.98 68.11 68.97 69.14 69.46 69.48 69.72 70.09 70.73 70.52 71.76 70.86 71.08 71.12 70.67 70.32 69.85 69.72 71.00 70.20 71.41 71.21 71.13 71.26 69.63 69.21 69.93 69.82 70.18 70.90 71.44 67.39 67.03 69.49
58.37 57.64 59.91 59.16 57.75 60.28 64.04 60.54 61.76 67.08 67.28 64.02 64.28 65.47 67.85 68.11 68.57 68.14 69.30 69.79 70.25 70.44 70.89 70.58 70.73 71.71 70.96 70.47 71.80 71.39 70.62 70.75 70.87 70.54 71.20 70.45 71.98 71.17 70.52 68.15 68.73 70.63 71.74 71.12 70.90 71.72 70.55 69.51 70.39
55.65 55.56 51.61 58.44 58.20 58.61 56.81 50.00 62.10 66.74 66.49 64.90 65.41 66.56 67.59 67.96 68.13 69.04 69.98 70.47 70.62 70.91 70.77 71.14 72.27 71.82 71.53 70.94 71.23 72.14 71.23 70.72 70.63 70.33 70.35 71.52 71.74 71.43 71.06 69.15 69.36 71.23 71.36 71.60 71.04 69.85 69.96 70.86 70.78
51.98 48.02 52.75 56.66 58.65 56.97 53.91 50.15 61.64 65.80 65.89 65.23 65.83 66.56 67.35 66.59 68.12 68.94 70.24 70.83 70.78 70.98 71.07 71.52 72.06 71.42 71.80 71.48 71.31 71.40 70.89 70.80 70.76 70.57 71.06 72.00 71.95 71.46 71.66 71.31 71.21 71.10 68.35 68.75 72.47 71.25 70.37 70.37 70.85
47.86 50.37 53.91 51.65 55.98 56.13 52.29 51.85 59.15 62.58 63.25 63.60 64.09 65.39 65.27 66.22 67.29 69.15 70.04 70.92 71.08 70.82 71.32 71.91 71.83 70.72 71.17 71.35 71.08 71.39 70.59 71.13 71.68 71.48 71.21 71.83 71.26 72.40 70.89 70.36 70.57 69.89 69.85 70.08 71.96 69.99 70.69 70.31 69.86
50.16 49.56 49.72 52.48 56.97 53.36 51.73 51.81 57.41 61.78 61.14 61.68 62.50 64.10 64.60 65.05 68.18 69.42 69.88 70.39 70.64 70.47 70.20 71.01 70.70 70.73 70.87 70.96 71.20 70.40 69.89 70.56 70.84 71.59 72.00 72.12 70.55 71.83 70.80 68.77 66.93 69.39 70.22 69.96 71.14 71.68 68.50 67.68 68.26
49.62 48.11 47.03 51.56 56.38 52.42 52.15 52.14 54.12 59.45 60.79 60.85 62.82 63.88 64.56 64.29 65.55 67.87 68.85 69.50 69.60 69.95 70.17 70.30 70.12 70.56 71.36 71.76 71.00 70.26 70.11 70.75 70.99 70.63 71.19 72.02 71.57 72.16 70.08 68.40 67.19 70.39 70.41 70.53 71.60 70.22 69.05 68.04 66.28
44.93 44.30 47.18 47.66 52.09 52.09 51.59 49.16 52.16 57.11 60.76 60.46 64.13 65.08 65.35 65.01 64.53 65.70 67.20 68.45 69.55 69.46 69.95 70.03 70.14 71.05 71.45 71.01 71.02 70.47 70.46 70.37 69.60 70.06 70.56 72.18 72.44 72.64 71.36 70.08 69.38 69.78 71.04 70.88 69.95 70.13 69.18 68.01 66.35
43.38 49.46 51.58 52.52 47.93 43.09 49.22 41.31 48.21 52.57 54.56 58.92 60.42 63.71 64.52 65.15 65.98 65.97 65.95 67.79 68.80 69.70 70.90 70.61 70.31 70.91 71.20 70.68 70.34 69.23 68.79 67.92 69.37 69.37 70.03 71.41 72.57 72.21 69.43 69.59 68.82 69.77 70.94 67.55 68.30 69.84 70.06 69.75 68.43
46.87 50.61 51.22 52.09 48.27 44.61 46.08 42.85 46.91 51.34 50.85 53.75 56.59 62.08 64.52 65.58 66.21 66.17 66.22 67.87 68.72 69.88 71.01 71.16 70.49 70.62 71.24 71.14 70.40 69.60 68.36 68.62 69.71 69.44 69.47 69.57 70.52 72.52 70.50 69.16 66.36 69.55 69.65 67.55 67.70 68.13 70.81 70.78 68.82
52.45 49.75 47.85 49.63 45.96 41.67 43.51 44.71 45.34 48.48 51.54 54.07 56.47 57.93 64.62 65.48 66.53 67.01 67.52 68.21 68.66 69.80 70.53 71.64 70.58 70.41 71.12 70.98 70.69 69.83 69.02 68.18 68.84 68.91 68.66 69.98 70.91 71.55 72.03 71.45 69.01 69.13 70.41 67.78 65.03 69.90 72.24 71.57 70.98
49.11 43.03 38.14 40.55 41.15 41.89 45.23 45.23 46.59 53.14 55.02 58.63 61.62 63.10 63.94 65.87 66.42 66.38 66.04 66.83 68.34 69.41 70.07 71.94 71.00 70.21 70.95 71.19 71.24 70.81 70.04 68.97 68.37 68.89 69.11 68.57 70.06 69.77 71.25 72.09 71.96 71.61 71.71 70.92 70.22 71.25 71.58 72.25 70.99
46.13 43.81 39.28 36.51 38.87 42.18 47.47 43.55 48.58 59.55 62.23 63.37 63.68 63.55 64.70 65.98 65.26 65.73 66.28 66.53 67.50 69.70 70.39 71.48 71.59 71.00 71.34 71.12 71.36 71.53 70.48 70.57 70.00 69.13 69.25 69.95 70.07 70.75 70.71 71.61 72.37 71.99 72.44 72.04 71.18 70.61 70.47 71.33 72.02
47.02 43.99 46.93 41.99 40.60 41.84 45.87 48.73 52.46 58.41 60.01 61.22 61.01 62.46 62.88 65.66 64.47 65.24 69.79 63.59 67.22 69.70 70.36 71.23 71.73 71.96 72.03 72.20 71.91 71.44 71.86 70.74 70.76 70.34 69.66 70.28 70.25 71.07 70.95 70.96 71.61 72.21 72.92 73.07 71.58 70.36 70.45 71.33 71.73
50.84 49.78 44.20 41.66 37.40 36.47 44.31 45.19 45.83 53.38 57.51 59.47 59.17 59.05 61.61 65.96 67.57 67.92 68.75 69.67 69.44 68.72 70.02 71.40 71.53 72.01 72.78 73.11 73.14 72.98 72.08 72.50 72.13 71.63 70.75 70.86 70.46 70.17 71.15 71.24 70.58 71.79 72.34 72.96 72.01 70.60 70.42 70.59 70.87
46.80 45.23 44.50 45.07 42.60 38.73 39.35 43.38 52.18 55.27 59.30 60.11 59.19 60.99 62.05 64.75 66.29 67.62 67.96 69.82 66.37 68.74 70.41 71.26 72.23 72.21 72.38 73.29 73.47 73.74 73.60 73.02 72.79 72.38 72.08 71.43 71.36 70.74 70.08 71.09 71.51 69.90 71.64 71.55 71.78 71.92 70.96 70.57 70.59
48.86 44.16 43.54 41.96 41.91 40.23 40.83 43.88 55.41 57.29 57.96 62.89 62.68 62.02 63.50 64.29 64.55 66.61 67.22 67.71 68.07 66.18 66.11 67.18 64.65 66.28 69.08 70.29 71.90 73.62 73.09 74.12 73.60 72.75 72.38 72.38 71.12 71.04 71.22 71.04 71.44 71.64 71.31 71.27 71.28 71.24 72.45 71.33 70.83
MSLP
1008.06 1007.81 1008.34 1008.46 1009.55 1010.50 1009.80 1008.68 1007.08 1006.89 1006.89 1007.00 1007.26 1008.33 1009.43 1009.79 1010.64 1012.42 1012.32 1012.86 1013.52 1014.05 1014.40 1014.66 1014.88 1015.15 1015.40 1015.55 1015.78 1015.85 1016.14 1016.47 1016.68 1016.91 1017.00 1017.29 1017.53 1017.77 1017.92 1017.99 1018.12 1018.25 1018.42 1018.65 1018.80 1019.04 1019.28 1019.25 1019.18
1007.90 1007.71 1008.66 1010.01 1011.00 1011.36 1010.45 1009.37 1007.96 1007.35 1007.06 1007.13 1007.73 1008.27 1009.19 1010.53 1010.78 1012.11 1013.02 1013.14 1013.31 1013.98 1014.47 1014.72 1014.98 1015.22 1015.53 1015.79 1015.88 1016.06 1016.23 1016.56 1016.68 1016.93 1017.22 1017.51 1017.63 1017.83 1018.01 1018.08 1018.14 1018.30 1018.56 1018.80 1019.02 1019.14 1019.30 1019.22 1019.21
1008.34 1008.16 1009.75 1011.45 1012.52 1012.12 1011.41 1009.93 1008.58 1007.92 1007.64 1007.71 1008.00 1008.42 1009.60 1010.83 1011.67 1012.15 1012.83 1013.37 1013.61 1014.28 1014.57 1014.87 1015.05 1015.49 1015.72 1015.93 1016.04 1016.14 1016.45 1016.73 1016.94 1017.22 1017.56 1017.79 1017.85 1018.07 1018.36 1018.36 1018.39 1018.40 1018.58 1018.85 1019.07 1019.15 1019.19 1019.24 1019.26
1008.37 1009.01 1010.64 1011.25 1012.50 1012.50 1011.70 1010.36 1008.74 1008.32 1008.37 1008.86 1008.82 1009.33 1009.90 1010.13 1010.69 1011.68 1012.94 1013.55 1014.05 1014.58 1014.76 1014.77 1015.10 1015.53 1015.84 1015.94 1016.29 1016.49 1016.64 1016.92 1017.25 1017.47 1017.78 1017.91 1018.12 1018.37 1018.46 1018.54 1018.53 1018.49 1018.79 1019.02 1019.02 1019.10 1019.23 1019.31 1019.19
1008.73 1009.76 1010.78 1011.03 1011.19 1011.05 1010.10 1009.66 1008.60 1008.81 1009.18 1008.92 1009.24 1010.21 1010.43 1010.81 1011.52 1012.15 1013.06 1013.67 1014.18 1014.72 1014.87 1014.99 1015.25 1015.52 1015.83 1016.07 1016.32 1016.54 1016.68 1016.98 1017.36 1017.67 1017.80 1017.92 1018.23 1018.45 1018.58 1018.71 1018.55 1018.61 1018.85 1019.04 1019.08 1019.19 1019.33 1019.28 1019.37
1008.69 1009.56 1010.24 1010.19 1009.75 1009.67 1009.42 1008.58 1009.21 1008.94 1009.67 1009.53 1010.15 1010.68 1011.23 1011.45 1011.69 1012.71 1013.26 1013.58 1013.97 1014.60 1014.90 1015.24 1015.49 1015.64 1015.82 1016.16 1016.44 1016.69 1016.92 1017.06 1017.50 1017.76 1017.75 1017.90 1018.30 1018.55 1018.67 1018.67 1018.62 1018.75 1018.84 1018.94 1019.19 1019.30 1019.41 1019.42 1019.31
1007.81 1008.73 1009.26 1009.19 1009.03 1008.65 1008.43 1008.23 1008.95 1009.58 1009.91 1010.19 1010.36 1010.90 1011.59 1012.10 1012.38 1012.76 1013.45 1013.73 1014.22 1014.52 1015.04 1015.36 1015.79 1016.02 1016.07 1016.30 1016.68 1016.93 1017.12 1017.32 1017.64 1017.72 1017.84 1017.95 1018.13 1018.46 1018.48 1018.48 1018.60 1018.91 1018.89 1019.02 1019.16 1019.26 1019.58 1019.61 1019.66
1006.58 1007.50 1008.31 1008.56 1008.42 1008.19 1007.68 1008.19 1009.24 1009.14 1009.81 1010.10 1010.16 1010.93 1011.08 1011.79 1012.31 1012.91 1013.87 1014.20 1014.61 1014.81 1015.08 1015.49 1016.01 1016.21 1016.35 1016.56 1016.83 1017.11 1017.31 1017.50 1017.66 1017.72 1017.80 1017.86 1018.04 1018.25 1018.35 1018.51 1018.58 1018.74 1018.86 1019.10 1019.37 1019.49 1019.88 1019.77 1019.89
1005.62 1006.97 1007.69 1007.83 1007.62 1007.48 1007.39 1008.10 1008.91 1009.12 1009.79 1010.14 1010.83 1011.08 1010.98 1011.55 1012.64 1013.12 1014.35 1014.85 1015.08 1015.35 1015.53 1015.69 1016.19 1016.49 1016.75 1016.91 1017.07 1017.28 1017.44 1017.62 1017.72 1017.84 1017.94 1017.92 1018.26 1018.32 1018.46 1018.66 1018.62 1018.61 1018.73 1019.04 1019.43 1019.61 1019.71 1019.67 1019.61
1005.30 1006.47 1006.37 1006.21 1006.47 1006.57 1006.94 1007.50 1008.37 1009.41 1010.02 1010.51 1011.17 1011.11 1011.07 1011.95 1012.40 1012.92 1013.87 1014.63 1015.15 1015.27 1015.57 1015.89 1016.28 1016.72 1016.89 1016.87 1017.18 1017.39 1017.63 1017.78 1017.77 1018.09 1018.17 1018.20 1018.22 1018.34 1018.41 1018.65 1018.74 1018.78 1018.80 1019.13 1019.22 1019.33 1019.36 1019.58 1019.86
1004.91 1005.48 1005.47 1005.43 1005.59 1005.76 1006.22 1006.82 1007.22 1008.83 1009.84 1009.66 1010.17 1010.64 1011.24 1012.06 1012.81 1012.81 1013.52 1013.74 1014.02 1014.56 1015.29 1015.81 1016.29 1016.55 1016.78 1016.71 1017.24 1017.79 1017.90 1017.77 1017.81 1018.14 1018.33 1018.21 1018.37 1018.46 1018.53 1018.57 1018.82 1019.12 1019.28 1019.41 1019.06 1019.31 1019.70 1019.79 1019.75
1004.37 1004.43 1004.51 1004.70 1004.72 1005.07 1005.60 1006.13 1007.00 1007.80 1007.95 1008.20 1009.33 1010.24 1011.12 1011.56 1012.31 1012.19 1012.90 1013.55 1013.90 1014.24 1014.70 1015.43 1015.93 1016.22 1016.56 1016.69 1017.16 1017.41 1017.85 1017.93 1017.93 1018.10 1018.22 1018.36 1018.39 1018.51 1018.57 1018.83 1019.05 1019.26 1019.53 1019.38 1019.25 1019.43 1019.57 1019.84 1019.86
1004.20 1004.10 1004.06 1003.91 1004.18 1004.68 1004.95 1005.70 1006.27 1007.32 1007.66 1008.54 1009.62 1010.26 1010.58 1011.21 1011.70 1011.97 1012.06 1012.84 1013.45 1013.94 1014.49 1015.11 1015.66 1015.85 1015.98 1016.42 1016.93 1017.30 1017.63 1017.84 1017.86 1017.97 1018.05 1018.18 1018.37 1018.49 1018.51 1018.81 1018.94 1019.15 1019.44 1019.37 1019.17 1019.33 1019.43 1019.65 1019.57
1003.89 1003.79 1003.76 1003.67 1004.00 1004.42 1004.91 1005.52 1005.97 1007.40 1007.61 1008.41 1008.99 1009.73 1010.02 1010.58 1010.94 1011.62 1012.21 1012.58 1013.00 1013.57 1014.18 1014.67 1015.24 1015.22 1015.48 1016.09 1016.54 1016.95 1017.29 1017.57 1017.67 1017.81 1017.92 1018.02 1018.18 1018.51 1018.51 1018.23 1018.78 1018.97 1018.98 1019.01 1019.25 1019.15 1019.39 1019.43 1019.14
1004.51 1004.21 1004.01 1003.80 1003.78 1004.30 1004.64 1005.76 1006.14 1006.74 1007.31 1008.08 1008.55 1008.89 1009.49 1009.75 1010.53 1010.54 1010.84 1011.57 1012.14 1012.94 1013.55 1014.23 1014.69 1014.85 1015.36 1015.87 1016.16 1016.48 1016.90 1017.08 1017.34 1017.46 1017.44 1017.88 1018.09 1018.42 1017.86 1017.92 1018.66 1018.84 1018.92 1018.80 1018.93 1019.13 1019.76 1019.83 1019.88
1005.10 1004.75 1004.54 1004.02 1003.72 1003.83 1004.35 1005.38 1005.90 1006.52 1007.17 1007.88 1008.33 1008.31 1008.87 1009.36 1009.68 1010.06 1010.49 1010.97 1011.81 1012.42 1013.02 1013.74 1014.15 1014.51 1015.05 1015.58 1016.11 1016.29 1016.46 1016.74 1017.02 1017.21 1017.27 1017.51 1017.86 1018.14 1018.13 1018.33 1018.60 1018.58 1018.90 1018.69 1018.56 1019.19 1019.36 1020.06 1020.19
1005.95 1005.30 1004.78 1004.33 1003.78 1003.82 1004.40 1004.94 1005.45 1006.10 1006.59 1007.23 1007.79 1007.91 1008.20 1008.51 1009.21 1009.56 1009.84 1010.35 1011.00 1011.56 1012.43 1013.20 1013.58 1014.12 1014.62 1015.07 1015.56 1015.96 1016.07 1016.38 1016.55 1016.95 1017.19 1017.28 1017.72 1017.92 1018.22 1018.35 1018.48 1018.24 1018.82 1018.84 1018.57 1018.70 1018.78 1019.56 1020.12
1006.71 1005.44 1004.61 1004.30 1004.01 1004.02 1004.17 1004.42 1004.94 1005.50 1005.91 1006.39 1006.94 1007.29 1007.54 1007.99 1008.19 1008.77 1009.35 1009.94 1010.64 1011.15 1011.94 1012.70 1013.27 1013.80 1014.38 1015.02 1015.39 1015.69 1015.99 1016.03 1016.32 1016.58 1016.86 1017.01 1017.30 1017.74 1018.03 1018.09 1018.28 1018.55 1018.80 1018.38 1018.36 1018.65 1019.29 1019.59 1019.87
1006.38 1005.18 1004.74 1003.80 1003.70 1004.01 1004.22 1004.30 1004.90 1004.93 1005.52 1006.06 1006.45 1006.78 1007.07 1007.37 1007.72 1008.34 1008.82 1009.59 1010.35 1011.06 1011.77 1012.24 1012.93 1013.45 1014.22 1014.99 1015.56 1015.76 1015.86 1015.84 1016.09 1016.27 1016.46 1016.52 1016.87 1017.18 1017.64 1017.82 1018.08 1018.10 1018.27 1018.53 1018.46 1018.51 1019.24 1020.11 1020.47
1005.33 1004.94 1004.57 1004.00 1003.73 1004.23 1004.50 1004.57 1004.20 1004.66 1004.76 1005.08 1005.54 1006.17 1006.50 1007.08 1007.61 1008.22 1008.68 1009.27 1009.92 1010.52 1011.35 1012.05 1012.51 1013.27 1013.79 1014.45 1014.95 1015.19 1015.35 1015.40 1015.44 1015.74 1016.15 1016.16 1016.49 1016.65 1017.07 1017.36 1017.89 1017.64 1018.09 1018.21 1018.27 1018.11 1018.62 1019.52 1019.68
1004.89 1004.97 1004.74 1004.63 1004.40 1004.46 1004.65 1004.86 1004.47 1003.91 1003.94 1004.65 1004.83 1005.09 1005.84 1006.24 1006.94 1007.64 1008.16 1008.70 1009.54 1010.31 1010.88 1011.55 1012.21 1012.87 1013.48 1014.14 1014.82 1015.28 1015.52 1015.66 1015.72 1015.98 1016.04 1015.96 1016.14 1016.37 1016.72 1016.98 1017.58 1017.44 1017.67 1017.89 1018.05 1018.25 1018.28 1018.98 1019.62
1004.72 1004.43 1004.66 1004.98 1005.44 1005.70 1005.51 1006.10 1004.91 1003.94 1003.90 1004.01 1004.51 1005.21 1005.46 1006.03 1006.66 1007.22 1007.77 1008.51 1009.01 1009.59 1010.46 1011.11 1011.89 1012.69 1013.32 1013.90 1014.55 1014.96 1015.17 1015.65 1015.63 1015.62 1015.77 1015.91 1015.97 1016.13 1016.54 1016.76 1017.14 1017.24 1017.45 1017.58 1017.68 1018.17 1018.41 1018.38 1018.74
1004.32 1004.24 1004.95 1005.31 1005.90 1006.45 1006.47 1006.56 1005.14 1004.62 1004.19 1003.99 1004.17 1004.52 1004.86 1005.17 1005.81 1006.63 1007.26 1007.80 1008.66 1009.44 1010.25 1011.03 1011.79 1012.47 1012.96 1013.51 1013.97 1014.42 1014.83 1015.18 1015.27 1015.60 1015.77 1016.04 1015.88 1016.00 1016.21 1016.57 1016.93 1017.06 1017.18 1017.16 1017.40 1017.99 1018.07 1017.96 1018.33
1003.78 1004.42 1005.77 1006.61 1007.42 1008.00 1007.43 1006.97 1006.12 1005.28 1004.33 1003.78 1003.47 1003.51 1004.19 1004.99 1005.77 1006.38 1006.96 1008.04 1008.61 1009.25 1009.94 1010.57 1011.27 1011.92 1012.39 1012.96 1013.67 1014.12 1014.45 1014.80 1015.24 1015.48 1015.68 1015.76 1015.77 1015.99 1015.98 1016.15 1016.49 1016.61 1016.82 1016.96 1017.06 1017.49 1017.66 1017.78 1017.82
1004.08 1006.08 1007.50 1008.64 1009.08 1008.68 1007.38 1007.12 1006.34 1005.23 1004.63 1005.17 1004.84 1004.92 1005.58 1005.29 1005.84 1006.91 1007.75 1008.37 1008.74 1008.95 1009.59 1010.42 1011.06 1011.52 1011.84 1012.24 1012.91 1013.53 1014.00 1014.34 1014.70 1014.90 1015.06 1015.37 1015.51 1015.65 1015.84 1015.82 1016.03 1016.15 1016.21 1016.49 1016.58 1016.98 1017.31 1017.56 1017.65
1004.60 1006.22 1007.86 1008.77 1009.86 1008.88 1007.67 1007.45 1007.85 1007.12 1006.01 1005.98 1005.68 1005.92 1007.14 1008.22 1009.01 1009.96 1008.68 1008.21 1008.27 1008.92 1009.04 1009.55 1010.54 1011.24 1011.68 1011.91 1012.18 1012.75 1013.22 1013.73 1014.13 1014.38 1014.44 1014.55 1014.74 1014.88 1015.08 1015.36 1015.34 1015.50 1015.50 1015.70 1016.01 1016.52 1016.81 1017.06 1017.17
1004.57 1005.67 1006.35 1007.98 1009.22 1009.22 1008.81 1008.03 1007.51 1007.61 1007.17 1007.00 1006.93 1006.52 1007.53 1009.17 1010.74 1010.51 1010.82 1009.60 1009.13 1008.90 1009.27 1009.28 1009.95 1010.60 1011.00 1011.09 1011.56 1011.81 1012.47 1012.81 1013.22 1013.71 1013.98 1014.05 1014.16 1014.42 1014.59 1014.76 1015.08 1015.19 1015.28 1015.40 1015.79 1016.07 1016.24 1016.57 1016.76
1004.40 1004.90 1006.49 1008.17 1009.56 1010.29 1009.75 1009.10 1008.78 1008.92 1008.69 1008.34 1008.19 1007.94 1008.89 1010.19 1011.29 1013.03 1011.63 1009.86 1009.09 1008.97 1009.27 1009.87 1010.42 1010.92 1010.73 1010.65 1010.52 1010.95 1011.21 1011.99 1012.38 1012.83 1013.42 1013.56 1013.57 1013.80 1014.08 1014.37 1014.71 1014.85 1014.94 1015.15 1015.53 1015.78 1015.97 1016.15 1016.31
1005.22 1005.82 1006.78 1008.05 1009.11 1010.26 1010.79 1010.32 1009.44 1009.86 1009.41 1009.16 1009.25 1009.42 1010.03 1010.31 1011.54 1012.15 1010.74 1010.18 1009.48 1008.43 1008.25 1009.19 1009.02 1009.99 1011.13 1010.93 1011.01 1011.50 1010.98 1011.22 1011.81 1012.04 1012.37 1012.81 1013.06 1013.16 1013.47 1013.76 1014.10 1014.50 1014.74 1014.80 1015.18 1015.42 1015.68 1015.98 1015.97
1006.39 1007.15 1007.81 1009.04 1009.82 1010.17 1010.41 1010.41 1009.84 1010.84 1010.47 1010.06 1010.57 1010.93 1011.08 1010.96 1011.57 1011.51 1011.64 1010.82 1010.43 1010.04 1009.96 1009.21 1010.39 1011.87 1011.27 1010.78 1010.03 1011.44 1011.56 1011.30 1011.37 1011.63 1011.63 1012.02 1012.33 1012.56 1012.74 1013.06 1013.44 1013.72 1013.99 1014.37 1014.66 1015.01 1015.14 1015.49 1015.78
Wind_Speed
5 6 2 4 6 4 5 3 9 9 4 3 10 6 6 4 4 4 12 14 17 15 12 15 17 17 18 17 16 16 17 16 16 16 16 15 14 13 12 11 11 9 8 7 7 7 9 8 9
2 2 5 3 6 5 6 10 8 13 11 11 16 10 9 4 8 14 10 18 19 15 11 12 17 18 18 18 17 16 16 14 14 14 13 12 11 10 9 10 9 9 8 6 6 6 7 8 8
1 5 6 5 3 1 3 9 16 14 14 10 7 11 6 7 15 10 15 17 17 13 10 12 18 17 18 18 17 16 16 14 12 12 11 9 9 8 8 7 8 9 8 7 6 6 6 7 7
3 4 3 5 7 5 2 7 6 13 9 13 5 6 6 6 14 14 20 18 15 12 10 16 19 19 18 17 17 17 16 14 13 12 11 9 8 8 8 8 8 8 7 7 6 6 6 7 5
3 2 4 1 7 9 7 8 5 11 7 2 4 9 6 9 18 24 20 17 16 11 9 13 18 18 17 17 16 16 16 15 13 12 11 9 7 8 8 7 8 7 7 6 5 5 6 5 5
3 2 5 1 2 12 11 8 17 17 13 14 12 6 1 22 25 19 17 17 16 14 10 10 17 17 17 17 16 15 14 14 14 12 11 9 8 7 8 8 8 7 7 7 6 4 6 5 7
6 4 3 3 3 5 6 3 12 14 12 5 6 6 9 18 17 19 16 16 15 14 10 9 8 13 17 15 16 15 14 13 12 11 9 9 8 8 9 8 7 6 6 6 7 6 6 6 6
2 5 3 1 3 1 2 7 15 12 5 6 5 5 12 22 20 18 14 14 11 12 10 9 6 6 6 7 16 14 12 11 11 10 9 9 8 8 8 7 6 6 5 6 6 6 5 5 5
4 5 3 5 5 4 4 7 1 7 9 4 3 5 2 23 21 18 13 10 9 8 9 9 6 6 5 5 7 12 13 11 9 7 7 6 2 2 4 5 6 5 5 6 5 6 7 7 7
5 4 3 6 6 6 10 10 10 5 4 1 3 5 10 22 21 19 16 13 11 11 10 10 7 6 6 5 4 5 5 4 4 3 2 2 3 1 4 1 4 4 4 6 4 7 8 7 2
4 5 5 3 7 8 7 9 8 14 4 8 13 13 12 22 16 18 16 18 18 15 10 9 9 7 7 5 4 2 1 2 3 3 2 3 2 2 3 3 2 2 5 2 3 0 1 4 3
7 5 6 6 6 7 8 8 6 10 6 11 13 15 12 19 20 20 18 16 14 14 13 12 10 10 7 4 4 5 3 2 3 3 4 3 2 2 3 2 3 2 2 4 3 2 4 5 4
6 5 6 8 7 8 7 7 7 6 10 13 13 12 15 18 16 15 17 15 15 13 13 12 10 10 9 7 4 4 4 3 4 3 3 5 3 4 3 1 2 2 2 3 3 4 4 5 5
5 3 3 6 6 8 7 5 7 6 17 17 18 16 20 21 18 14 14 15 15 14 14 13 12 10 10 7 7 5 4 5 4 3 4 6 4 5 3 3 2 2 4 2 3 4 4 5 2
7 1 2 2 4 4 10 1 7 14 18 18 19 19 19 21 19 19 19 18 17 14 15 15 14 10 9 7 7 6 5 5 4 4 6 6 4 7 5 4 2 3 3 6 5 5 3 3 3
5 3 3 5 4 5 7 6 6 17 18 18 18 17 19 18 22 19 18 17 16 14 15 14 13 13 10 8 6 5 5 5 4 4 4 6 6 8 6 6 6 5 3 4 5 3 4 2 5
5 5 2 1 6 4 4 5 7 18 16 17 17 17 16 17 21 19 20 18 18 16 15 16 14 13 12 10 7 6 6 5 4 4 4 6 9 10 8 6 6 4 3 4 3 1 4 3 3
6 4 0 6 7 4 4 4 8 13 14 17 16 16 14 17 21 20 19 18 16 15 15 14 11 13 12 6 4 3 4 4 4 4 5 7 6 10 7 4 5 5 3 3 3 3 3 3 4
7 2 2 3 7 6 7 6 8 12 8 11 11 15 14 16 17 17 16 15 15 15 14 16 14 10 9 5 7 4 4 4 4 4 6 7 6 8 7 5 4 2 4 2 4 2 6 3 4
1 2 5 5 4 3 3 7 9 12 15 12 16 16 16 10 14 16 15 15 16 18 17 15 13 11 11 8 6 3 4 3 3 4 6 6 6 7 6 6 5 3 2 2 2 1 3 3 1
2 1 6 6 3 3 1 9 7 6 10 8 17 19 16 18 17 16 17 18 17 17 17 16 15 15 12 8 4 3 3 3 1 2 3 5 7 7 6 6 5 3 3 3 1 2 4 4 4
2 4 8 5 4 2 4 6 8 4 7 13 12 15 16 16 14 14 16 17 18 17 15 15 14 13 10 9 7 6 5 4 4 4 3 4 8 8 7 6 6 6 4 6 3 1 1 3 3
9 6 3 2 2 2 2 4 9 3 3 5 9 15 17 18 18 17 17 19 17 16 15 13 13 12 10 11 9 8 5 4 3 3 6 6 5 8 9 8 7 6 4 3 4 3 4 3 3
5 4 9 6 4 4 0 6 7 3 5 4 4 14 20 18 17 18 14 13 14 14 14 14 15 13 11 12 9 10 10 6 4 4 5 6 4 5 7 8 8 7 5 5 5 6 4 5 3
4 8 5 5 6 6 1 5 7 5 3 17 22 23 8 10 17 13 11 10 12 15 14 13 14 14 13 14 12 11 10 8 8 7 6 6 4 4 7 7 8 5 6 6 6 5 5 4 3
3 9 7 2 3 6 4 4 8 14 15 14 20 22 27 24 17 14 2 6 10 14 15 17 15 14 14 14 13 10 10 7 7 8 5 6 7 6 7 8 7 8 8 6 6 4 4 4 4
3 0 7 5 1 3 2 4 2 12 14 12 15 16 24 21 23 26 26 6 7 9 14 17 16 14 15 16 12 12 11 11 10 9 7 6 5 6 8 8 9 8 8 8 7 5 6 5 4
1 4 4 4 1 3 4 1 3 5 6 8 11 12 17 14 19 13 11 10 9 4 6 5 4 7 11 12 13 12 13 13 11 9 9 9 8 7 7 8 8 8 9 9 8 6 5 6 5
9 8 5 5 5 7 3 5 3 6 7 10 7 4 11 10 9 6 11 14 11 6 11 6 11 9 6 6 6 9 11 12 11 11 11 10 9 8 9 9 8 9 9 9 8 7 7 7 6
6 3 4 6 5 1 5 5 3 4 4 9 9 7 8 9 5 9 8 9 11 9 8 8 10 7 4 6 6 6 9 10 11 12 12 11 12 10 11 10 9 9 10 10 11 10 10 9 8
Wind_Direction
236 215 151 19 44 51 350 75 143 128 79 69 111 120 124 90 163 191 134 140 140 146 155 149 150 149 146 139 137 129 121 118 114 115 108 106 107 106 108 108 116 121 121 122 125 128 124 125 131
341 89 52 25 60 34 334 320 68 96 96 95 101 94 57 87 68 111 117 143 144 145 150 149 153 153 152 149 144 136 130 128 120 111 112 111 107 107 113 120 126 118 117 124 135 140 129 138 143
352 21 76 91 70 106 295 2 104 107 110 85 92 93 92 107 113 129 133 141 138 144 146 156 156 157 155 153 151 144 141 141 133 126 122 127 123 125 121 128 128 127 127 130 136 142 144 139 144
65 19 60 110 179 186 152 262 65 98 55 12 16 61 68 148 136 139 142 142 135 141 152 161 159 158 158 156 154 151 149 148 146 142 143 150 148 136 138 142 131 137 128 136 136 140 144 142 159
96 77 105 117 135 158 235 257 99 94 95 19 41 106 102 105 116 132 139 137 136 139 152 159 162 160 162 161 160 159 158 155 152 150 153 165 160 150 147 147 145 143 135 134 152 145 147 150 163
21 104 44 68 60 153 200 168 117 88 80 91 86 89 120 132 134 142 141 138 141 142 150 154 163 163 159 163 160 157 158 155 152 158 167 165 167 162 152 159 156 155 153 151 159 175 159 162 154
201 125 201 117 70 42 104 110 99 103 87 66 153 116 137 139 143 138 138 135 141 143 147 143 150 160 160 158 158 157 155 156 154 164 172 168 170 169 163 159 169 176 169 174 178 184 173 181 196
256 103 99 93 143 66 4 108 112 106 155 168 153 163 160 144 143 127 136 133 138 143 147 138 139 138 133 150 152 151 151 152 162 169 177 173 170 168 170 164 188 181 194 190 192 196 198 194 221
110 66 136 170 145 177 103 105 3 102 130 216 121 120 164 140 134 124 125 131 142 151 153 147 143 142 126 137 158 157 153 147 156 162 164 173 115 198 189 182 205 206 218 207 184 191 207 203 225
97 92 52 154 160 149 142 133 158 113 133 74 141 146 138 146 146 142 150 154 165 165 165 166 150 144 150 163 154 157 157 147 164 155 158 146 165 227 207 193 251 229 240 236 200 204 212 221 195
144 131 146 123 144 161 156 150 163 133 207 212 181 185 159 150 152 150 158 167 176 172 165 170 160 161 167 173 142 125 138 179 176 184 171 178 95 86 90 136 108 35 352 342 250 16 332 262 222
105 121 168 192 175 152 167 142 143 174 196 186 168 166 165 165 171 163 169 174 171 172 176 166 172 167 175 161 163 160 162 208 203 196 180 122 138 143 104 6 27 3 3 287 278 200 230 240 239
124 189 182 185 175 174 146 156 176 145 137 160 144 157 179 173 173 172 169 172 171 174 171 173 172 175 172 166 160 158 169 194 218 205 159 144 153 140 92 341 277 262 295 252 262 233 229 248 228
167 210 194 199 188 190 156 175 108 149 143 165 171 172 173 179 184 168 171 179 173 174 179 173 182 181 168 168 166 169 172 194 205 199 175 159 181 94 88 291 342 257 238 237 250 228 211 234 246
286 216 333 212 167 157 126 101 147 161 158 158 185 176 179 188 179 183 179 182 176 177 175 177 182 174 174 171 173 173 188 189 196 202 190 147 160 130 130 249 324 286 297 284 264 230 168 236 263
333 115 185 248 186 210 114 250 163 170 161 170 186 191 183 198 188 187 182 187 177 173 175 177 183 174 175 181 173 193 176 184 193 191 207 183 161 158 184 187 231 240 265 282 253 161 118 81 26
353 261 194 112 221 229 144 229 200 176 177 177 191 195 196 190 188 189 187 188 179 179 171 180 180 175 180 182 179 189 178 179 193 175 190 206 152 173 183 196 219 217 245 261 261 136 114 46 180
307 200 142 181 231 228 229 272 178 187 176 180 180 185 179 174 191 184 180 188 178 177 175 174 176 177 182 169 163 174 182 173 173 192 193 204 160 174 162 205 193 197 206 335 317 197 99 137 149
256 30 301 238 200 164 217 238 206 201 201 172 183 178 184 180 189 187 182 174 171 177 175 181 177 177 165 156 174 173 183 177 192 183 202 185 173 173 175 187 174 162 99 288 285 132 125 111 154
320 314 294 296 218 125 186 262 242 195 209 182 183 184 186 171 170 187 184 175 175 177 181 179 180 171 177 179 183 150 163 191 186 171 185 185 179 183 183 167 167 177 121 353 293 257 121 95 310
314 262 281 231 345 327 157 324 335 219 197 176 195 187 183 181 172 182 185 185 176 177 180 182 181 182 182 170 122 84 62 50 104 163 197 189 181 184 181 183 149 180 133 195 185 264 139 132 210
316 205 271 235 64 258 90 280 316 246 194 197 180 187 187 184 182 173 170 177 178 183 181 181 179 181 177 155 166 163 177 163 208 187 188 173 185 174 174 188 160 176 194 188 170 247 164 146 186
240 254 68 74 107 52 89 89 265 8 249 227 199 191 190 186 178 183 177 178 179 176 175 177 179 180 175 177 173 176 180 183 188 177 188 188 200 181 180 176 173 192 207 169 186 226 203 174 152
253 30 38 36 49 20 2 121 297 204 217 268 220 192 187 182 185 190 179 165 178 178 175 173 173 181 176 182 176 181 190 178 181 188 192 202 202 188 195 181 179 199 189 188 216 216 223 182 165
83 52 351 3 3 233 314 64 249 283 322 71 70 58 46 188 178 175 173 169 179 180 179 175 177 186 183 183 184 183 188 189 191 196 193 189 194 184 199 187 186 196 193 194 202 217 220 199 190
202 145 157 280 208 264 346 39 1 74 85 69 73 77 60 38 35 3 289 182 177 192 182 179 182 185 190 190 192 190 181 193 204 202 207 202 202 206 192 193 188 195 198 196 194 206 219 224 232
258 279 195 133 321 60 324 341 141 38 47 50 62 68 83 60 50 9 317 295 296 202 200 189 183 185 191 196 196 193 187 191 197 200 209 214 201 198 198 189 192 205 194 193 189 209 214 211 224
115 199 36 11 92 52 303 321 247 24 35 46 53 76 84 100 110 189 322 325 309 50 164 189 198 209 205 202 196 197 195 196 194 186 202 211 213 204 189 200 195 204 205 192 189 202 215 209 221
354 359 25 108 135 150 183 262 226 202 148 92 86 76 100 88 100 98 55 22 13 46 176 159 163 170 180 190 204 237 205 198 195 197 203 205 211 205 198 200 203 198 215 207 194 202 209 208 222
108 26 80 109 287 28 136 271 234 57 75 108 63 61 48 67 92 76 57 70 35 16 26 347 6 321 250 217 140 250 236 210 200 208 206 203 206 210 208 200 197 204 205 203 202 206 213 209 219